Location: El Álamo
(40.2307°N, 3.9945°W)
Time: 02:10:16
(UTC+00:00)

Cosmos 2221 - Pass Details

Date: 19 May 2025
Orbit: 573 x 592 km, 82.5° (Epoch: 24 June)

Event Time Altitude Azimuth Distance (km) Brightness Sun altitude
Exits shadow 21:37:52 36° 86° (E) 933 3.2 -19.9°
Drops below altitude 10° 21:41:31 10° 25° (NNE) 1,895 5.4 -20.3°
Sets 21:43:50 0° 17° (NNE) 2,795 6.4 -20.6°
